Weather in Kungur

Russia / Perm Krai     57°25′43″N   56°56′39″E
temp.,
°C
wind,
m/s
gust,
m/s
humid.,
%
clouds,
%
prec.,
mm/h
press.,
hPa
HPBL,
m
13 august, sat
sat1323:00+15wsw4117626 0.0 1016235
02:00+16w5137590 0.0 1014376
05:00+16w51179100 0.1 1014405
08:00+17w510825 0.0 1014436
11:00+20nw710530 0.0 10151433
14:00+22nw79431 0.0 10152135
17:00+21nnw78444 0.0 10162124
20:00+16nnw35600 0.0 101876
14 august, sun
sun1423:00+12nw22680 0.0 101916
02:00+10wnw11750 0.0 102011
05:00+9w22786 0.0 102110
08:00+13wnw246899 0.0 1022161
11:00+18nw345158 0.0 1021800
14:00+21nw364018 0.0 10212342
17:00+22nw353872 0.0 10202294
20:00+18nne345589 0.0 102186
15 august, mon
mon1523:00+15ene1154100 0.0 102211
02:00+14nw1154100 0.0 102211
05:00+11ne116538 0.0 102310
08:00+14ne23644 0.0 1024138
11:00+18ne33525 0.0 1024709
14:00+21n35429 0.0 10231750
17:00+21n45420 0.0 10231912
20:00+17nne33594 0.0 102328
16 august, tue
tue1623:00+12ne22640 0.0 102410
02:00+11wnw01690 0.0 102410
05:00+10w11695 0.0 102510
08:00+14w236216 0.0 1025123
11:00+19wnw465427 0.0 1024606
14:00+23nw574119 0.0 10232348
17:00+24nnw684322 0.0 10222446
20:00+18nnw366060 0.0 102392
17 august, wed
wed1723:00+14nw34706 0.0 102451
02:00+12nnw22810 0.0 102416
05:00+10nnw22830 0.0 102514
08:00+13nnw24705 0.0 1025182
11:00+18n354593 0.0 1025926
14:00+20nnw453876 0.0 10241378
17:00+17nnw4751100 0.0 1024332
20:00+12ne3682100 0.0 1024228